When you browse on this site, cookies collect data to enhance your experience and personalize the content and advertising you see.
Visit our Privacy Policy to learn more. By continuing to use the site, you agree to this use of cookies and data.
  • In France
  • List of Countries
  • For 7 days
  • Water Temperature
  • Satellite Maps
  • Weather Map
  • Weather Widgets
  • user-avatar
    Login

    Hourly Weather Hadiyal

    Today, 9 December, Sunday

    Time Temperature Precipitation Wind Pressure Humidity
    00:00 -5°C° 0 mm 2 mps 607 mmHg 67%
    01:00 -5°C° 0 mm 2 mps 607 mmHg 68%
    02:00 -5°C° 0 mm 2 mps 607 mmHg 70%
    03:00 -5°C° 0 mm 2 mps 607 mmHg 73%
    04:00 -5°C° 0 mm 2 mps 607 mmHg 74%
    05:00 -5°C° 0 mm 2 mps 607 mmHg 75%
    06:00 -5°C° 0 mm 2 mps 607 mmHg 76%
    07:00 -5°C° 0 mm 2 mps 607 mmHg 75%
    08:00 -4°C° 0 mm 2 mps 608 mmHg 73%
    09:00 -3°C° 0 mm 2 mps 608 mmHg 70%
    10:00 -2°C° 0 mm 2 mps 609 mmHg 70%
    11:00 -1°C° 0 mm 2 mps 609 mmHg 69%
    12:00 +1°C° 0 mm 2 mps 609 mmHg 68%
    13:00 -1°C° 0 mm 2 mps 609 mmHg 69%
    14:00 -1°C° 0 mm 2 mps 609 mmHg 71%
    15:00 -2°C° 0 mm 2 mps 608 mmHg 72%
    16:00 -3°C° 0 mm 2 mps 608 mmHg 73%
    17:00 -4°C° 0 mm 2 mps 608 mmHg 74%
    18:00 -5°C° 0 mm 2 mps 607 mmHg 76%
    19:00 -5°C° 0 mm 2 mps 607 mmHg 75%
    20:00 -5°C° 0 mm 2 mps 607 mmHg 74%
    21:00 -5°C° 0 mm 2 mps 607 mmHg 73%
    22:00 -5°C° 0 mm 2 mps 607 mmHg 73%
    23:00 -5°C° 0 mm 2 mps 607 mmHg 73%

    Tomorrow, 10 December, Monday

    Time Temperature Precipitation Wind Pressure Humidity
    00:00 -5°C° 0 mm 2 mps 607 mmHg 73%
    01:00 -5°C° 0 mm 2 mps 606 mmHg 72%
    02:00 -5°C° 0 mm 2 mps 606 mmHg 71%
    03:00 -5°C° 0 mm 2 mps 606 mmHg 71%
    04:00 -5°C° 0 mm 2 mps 606 mmHg 69%
    05:00 -5°C° 0 mm 2 mps 605 mmHg 67%
    06:00 -5°C° 0 mm 2 mps 605 mmHg 65%
    07:00 -4°C° 0 mm 2 mps 606 mmHg 63%
    08:00 -3°C° 0 mm 2 mps 606 mmHg 60%
    09:00 -2°C° 0 mm 2 mps 606 mmHg 58%
    10:00 -1°C° 0 mm 2 mps 606 mmHg 56%
    11:00 +1°C° 0 mm 2 mps 606 mmHg 54%
    12:00 +3°C° 0 mm 2 mps 606 mmHg 53%
    13:00 +2°C° 0 mm 2 mps 606 mmHg 55%
    14:00 +2°C° 0 mm 2 mps 606 mmHg 57%
    15:00 +2°C° 0 mm 2 mps 606 mmHg 59%
    16:00 -1°C° 0 mm 2 mps 605 mmHg 59%
    17:00 -2°C° 0 mm 2 mps 605 mmHg 58%
    18:00 -3°C° 0 mm 2 mps 605 mmHg 58%
    19:00 -3°C° 0 mm 2 mps 604 mmHg 58%
    20:00 -3°C° 0 mm 2 mps 604 mmHg 59%
    21:00 -4°C° 0 mm 3 mps 604 mmHg 59%
    22:00 -4°C° 0 mm 3 mps 604 mmHg 61%
    23:00 -4°C° 0 mm 3 mps 604 mmHg 62%

    Day after tomorrow, 11 December, Tuesday

    Time Temperature Precipitation Wind Pressure Humidity
    00:00 -4°C° 0 mm 3 mps 604 mmHg 63%
    01:00 -3°C° 0 mm 2 mps 604 mmHg 62%
    02:00 -3°C° 0 mm 2 mps 604 mmHg 61%
    03:00 -3°C° 0 mm 2 mps 604 mmHg 60%
    04:00 -3°C° 0 mm 2 mps 604 mmHg 58%
    05:00 -3°C° 0 mm 2 mps 604 mmHg 57%
    06:00 -3°C° 0 mm 2 mps 604 mmHg 55%
    07:00 -2°C° 0 mm 2 mps 604 mmHg 55%
    08:00 -1°C° 0 mm 2 mps 605 mmHg 54%
    09:00 +2°C° 0 mm 2 mps 605 mmHg 53%
    10:00 +2°C° 0 mm 3 mps 605 mmHg 53%
    11:00 +3°C° 0 mm 3 mps 606 mmHg 54%
    12:00 +4°C° 0 mm 3 mps 606 mmHg 54%
    13:00 +4°C° 0 mm 3 mps 605 mmHg 57%
    14:00 +3°C° 0 mm 3 mps 605 mmHg 59%
    15:00 +3°C° 0 mm 3 mps 604 mmHg 62%
    16:00 +2°C° 0 mm 3 mps 604 mmHg 64%
    17:00 0°C° 0 mm 4 mps 603 mmHg 67%
    18:00 -1°C° 0 mm 4 mps 603 mmHg 69%
    19:00 -1°C° 0 mm 4 mps 603 mmHg 70%
    20:00 -2°C° 0 mm 4 mps 602 mmHg 71%
    21:00 -2°C° 0 mm 4 mps 602 mmHg 72%
    22:00 -2°C° 0 mm 4 mps 602 mmHg 72%
    23:00 -1°C° 0 mm 3 mps 602 mmHg 72%

    12 December, Wednesday

    Time Temperature Precipitation Wind Pressure Humidity
    00:00 -1°C° 0 mm 3 mps 602 mmHg 72%
    01:00 -2°C° 0.1 mm 4 mps 602 mmHg 73%
    02:00 -2°C° 0.1 mm 4 mps 603 mmHg 74%
    03:00 -2°C° 0.1 mm 4 mps 603 mmHg 75%
    04:00 -2°C° 0 mm 4 mps 603 mmHg 76%
    05:00 -2°C° 0 mm 3 mps 603 mmHg 78%
    06:00 -4°C° 0 mm 3 mps 604 mmHg 79%
    07:00 -2°C° 0 mm 3 mps 604 mmHg 76%
    08:00 -2°C° 0 mm 3 mps 605 mmHg 73%
    09:00 -2°C° 0 mm 3 mps 605 mmHg 69%
    10:00 -1°C° 0 mm 2 mps 605 mmHg 65%
    11:00 +1°C° 0 mm 2 mps 606 mmHg 61%
    12:00 +2°C° 0 mm 2 mps 606 mmHg 57%
    13:00 +1°C° 0.3 mm 2 mps 606 mmHg 62%
    14:00 +1°C° 0.3 mm 2 mps 605 mmHg 67%
    15:00 -1°C° 0.3 mm 2 mps 605 mmHg 72%
    16:00 -1°C° 0.7 mm 2 mps 605 mmHg 75%
    17:00 -2°C° 0.7 mm 2 mps 605 mmHg 79%
    18:00 -2°C° 0.7 mm 2 mps 605 mmHg 83%
    19:00 -2°C° 0.9 mm 2 mps 605 mmHg 84%
    20:00 -2°C° 0.9 mm 2 mps 604 mmHg 85%
    21:00 -2°C° 0.9 mm 2 mps 604 mmHg 87%
    22:00 -2°C° 1.2 mm 2 mps 604 mmHg 87%
    23:00 -2°C° 1.2 mm 2 mps 604 mmHg 87%

    13 December, Thursday

    Time Temperature Precipitation Wind Pressure Humidity
    00:00 -2°C° 1.2 mm 2 mps 604 mmHg 88%
    01:00 -2°C° 0.3 mm 3 mps 604 mmHg 87%
    02:00 -2°C° 0.3 mm 3 mps 604 mmHg 86%
    03:00 -2°C° 0.3 mm 3 mps 604 mmHg 86%
    04:00 -4°C° 0.1 mm 3 mps 604 mmHg 86%
    05:00 -3°C° 0.1 mm 2 mps 603 mmHg 87%
    06:00 -4°C° 0.1 mm 2 mps 603 mmHg 88%
    07:00 -4°C° 0.1 mm 2 mps 604 mmHg 87%
    08:00 -3°C° 0.1 mm 2 mps 605 mmHg 85%
    09:00 -4°C° 0.1 mm 3 mps 605 mmHg 84%
    10:00 -4°C° 0.1 mm 3 mps 606 mmHg 82%
    11:00 -2°C° 0.1 mm 3 mps 606 mmHg 80%
    12:00 -2°C° 0.1 mm 3 mps 606 mmHg 78%
    13:00 -2°C° 0.1 mm 3 mps 607 mmHg 78%
    14:00 -3°C° 0.1 mm 2 mps 607 mmHg 78%
    15:00 -3°C° 0.1 mm 2 mps 607 mmHg 78%
    16:00 -5°C° 0 mm 2 mps 607 mmHg 78%
    17:00 -6°C° 0 mm 2 mps 607 mmHg 78%
    18:00 -7°C° 0 mm 2 mps 606 mmHg 78%
    19:00 -8°C° 0 mm 2 mps 606 mmHg 73%
    20:00 -8°C° 0 mm 2 mps 607 mmHg 69%
    21:00 -8°C° 0 mm 2 mps 607 mmHg 64%
    22:00 -9°C° 0 mm 2 mps 607 mmHg 62%
    23:00 -9°C° 0 mm 2 mps 607 mmHg 59%

    14 December, Friday

    Time Temperature Precipitation Wind Pressure Humidity
    00:00 -9°C° 0 mm 2 mps 607 mmHg 57%
    01:00 -9°C° 0 mm 2 mps 607 mmHg 57%
    02:00 -9°C° 0 mm 2 mps 607 mmHg 57%
    03:00 -9°C° 0 mm 2 mps 607 mmHg 57%
    04:00 -9°C° 0 mm 2 mps 607 mmHg 58%
    05:00 -9°C° 0 mm 2 mps 607 mmHg 59%
    06:00 -10°C° 0 mm 2 mps 607 mmHg 60%
    07:00 -9°C° 0 mm 2 mps 608 mmHg 61%
    08:00 -8°C° 0 mm 2 mps 608 mmHg 62%
    09:00 -8°C° 0 mm 2 mps 609 mmHg 63%
    10:00 -7°C° 0 mm 2 mps 609 mmHg 63%
    11:00 -6°C° 0 mm 2 mps 609 mmHg 62%
    12:00 -5°C° 0 mm 2 mps 609 mmHg 62%
    13:00 -5°C° 0 mm 2 mps 609 mmHg 64%
    14:00 -6°C° 0 mm 2 mps 609 mmHg 66%
    15:00 -6°C° 0 mm 2 mps 609 mmHg 68%
    16:00 -7°C° 0 mm 2 mps 608 mmHg 70%
    17:00 -9°C° 0 mm 2 mps 608 mmHg 72%
    18:00 -10°C° 0 mm 2 mps 608 mmHg 74%
    19:00 -12°C° 0 mm 2 mps 607 mmHg 72%
    20:00 -12°C° 0 mm 2 mps 607 mmHg 71%
    21:00 -12°C° 0 mm 2 mps 607 mmHg 69%
    22:00 -10°C° 0 mm 2 mps 607 mmHg 67%
    23:00 -10°C° 0 mm 2 mps 607 mmHg 65%
    Show more